FW8536 Weather Reports


Display with metric or nautical units.
time (UTC)temp
F
wind
direction
speed
MPH
gust
MPH
rain 1hr
in
rain 24hr
in
rain mn
in
humidity
%
barometer
mb
20260505193535 44 360 17.0 24.0 0.00 0.00 0.00 39 1005.2
20260505193042 44 360 12.0 22.0 0.00 0.00 0.00 38 1005.2
20260505192535 44 360 15.0 21.0 0.00 0.00 0.00 37 1005.0
20260505192035 44 360 14.0 23.0 0.00 0.00 0.00 38 1005.1
20260505191549 44 360 16.0 23.0 0.00 0.00 0.00 37 1005.2
20260505191037 44 360 15.0 23.0 0.00 0.00 0.00 38 1005.1
20260505190534 44 360 16.0 23.0 0.00 0.00 0.00 38 1005.0
20260505190034 43 360 16.0 23.0 0.00 0.00 0.00 38 1004.9
20260505185534 43 360 17.0 23.0 0.00 0.00 0.00 37 1004.9
20260505185034 43 360 12.0 23.0 0.00 0.00 0.00 39 1005.0
20260505184534 43 360 18.0 25.0 0.00 0.00 0.00 37 1005.0
20260505183533 43 360 13.0 22.0 0.00 0.00 0.00 38 1005.0
20260505183033 43 360 16.0 22.0 0.00 0.00 0.00 37 1004.9
20260505182535 43 360 14.0 22.0 0.00 0.00 0.00 37 1005.0
20260505182033 43 360 17.0 26.0 0.00 0.00 0.00 37 1005.0
20260505181533 43 360 16.0 26.0 0.00 0.00 0.00 37 1004.9
20260505181033 43 360 15.0 24.0 0.00 0.00 0.00 38 1004.9
20260505180533 43 360 18.0 24.0 0.00 0.00 0.00 37 1005.1
20260505180044 43 360 13.0 24.0 0.00 0.00 0.00 37 1005.1
20260505175532 42 360 14.0 25.0 0.00 0.00 0.00 38 1005.0
20260505175035 42 360 18.0 24.0 0.00 0.00 0.00 38 1005.1
20260505174539 41 360 17.0 25.0 0.00 0.00 0.00 40 1005.0
20260505173536 42 360 16.0 25.0 0.00 0.00 0.00 39 1005.0
20260505173034 42 360 17.0 25.0 0.00 0.00 0.00 38 1005.0
20260505172532 42 360 10.0 24.0 0.00 0.00 0.00 40 1004.9
20260505172032 41 360 12.0 24.0 0.00 0.00 0.00 41 1005.1
20260505171534 40 360 13.0 25.0 0.00 0.00 0.00 43 1005.1
20260505171031 41 360 18.0 24.0 0.00 0.00 0.00 40 1005.0
20260505170530 42 360 14.0 24.0 0.00 0.00 0.00 42 1005.0
20260505170032 42 360 15.0 26.0 0.00 0.00 0.00 40 1005.2
20260505165531 43 360 17.0 26.0 0.00 0.00 0.00 39 1004.9
20260505165030 42 360 17.0 23.0 0.00 0.00 0.00 41 1004.9
20260505164530 41 360 15.0 23.0 0.00 0.00 0.00 42 1005.0
20260505163530 40 360 17.0 25.0 0.00 0.00 0.00 47 1005.1
20260505163029 40 360 18.0 23.0 0.00 0.00 0.00 47 1005.1
20260505162529 40 360 15.0 23.0 0.00 0.00 0.00 47 1005.0
20260505162029 40 360 15.0 23.0 0.00 0.00 0.00 46 1005.0
20260505161529 40 360 16.0 30.0 0.00 0.00 0.00 47 1005.0
20260505161032 39 360 16.0 30.0 0.00 0.00 0.00 48 1005.0
20260505160532 39 360 16.0 25.0 0.00 0.00 0.00 49 1005.0
20260505153035 38 360 16.0 21.0 0.00 0.00 0.00 48 1005.1
20260505152529 38 360 14.0 22.0 0.00 0.00 0.00 47 1005.1
20260505152028 38 360 13.0 19.0 0.00 0.00 0.00 47 1005.0
20260505151534 38 360 13.0 22.0 0.00 0.00 0.00 49 1005.0
20260505151028 38 360 15.0 21.0 0.00 0.00 0.00 49 1005.0
20260505150529 38 360 13.0 21.0 0.00 0.00 0.00 50 1005.0
20260505140524 37 360 12.0 21.0 0.00 0.00 0.00 57 1004.7
20260505125018 35 360 11.0 14.0 0.00 0.00 0.00 65 1003.9
20260505124518 35 360 9.0 12.0 0.00 0.00 0.00 66 1003.9
20260505123516 35 360 9.0 12.0 0.00 0.00 0.00 66 1003.8
20260505123017 35 360 8.0 12.0 0.00 0.00 0.00 66 1003.7
20260505122516 35 360 8.0 12.0 0.00 0.00 0.00 66 1003.7
20260505122016 35 360 9.0 11.0 0.00 0.00 0.00 66 1003.5
20260505121516 35 360 7.0 13.0 0.00 0.00 0.00 67 1003.6
20260505121016 35 360 8.0 13.0 0.00 0.00 0.00 66 1003.5
20260505120516 34 360 9.0 13.0 0.00 0.00 0.00 66 1003.5
20260505120015 34 360 9.0 12.0 0.00 0.00 0.00 66 1003.4
20260505115516 34 360 9.0 12.0 0.00 0.00 0.00 66 1003.5
20260505115017 34 360 8.0 12.0 0.00 0.00 0.00 66 1003.4
20260505114514 35 360 9.0 13.0 0.00 0.00 0.00 65 1003.4
20260505113513 35 360 9.0 14.0 0.00 0.00 0.00 65 1003.3
20260505113015 35 360 11.0 14.0 0.00 0.00 0.00 64 1003.3
20260505112513 35 360 11.0 18.0 0.00 0.00 0.00 64 1003.3
20260505112018 35 360 11.0 18.0 0.00 0.00 0.00 64 1003.4
20260505111614 35 360 10.0 15.0 0.00 0.00 0.00 64 1003.3
20260505111013 35 360 9.0 12.0 0.00 0.00 0.00 64 1003.3
20260505110513 35 360 8.0 12.0 0.00 0.00 0.00 63 1003.2
20260505102011 35 360 6.0 10.0 0.00 0.00 0.00 62 1003.0
20260505101508 35 360 7.0 10.0 0.00 0.00 0.00 62 1003.1
20260505101007 35 360 6.0 9.0 0.00 0.00 0.00 62 1003.0
20260505100507 35 360 6.0 10.0 0.00 0.00 0.00 62 1003.0
20260505100007 35 360 7.0 9.0 0.00 0.00 0.00 62 1003.1
20260505095506 35 360 6.0 10.0 0.00 0.00 0.00 62 1003.0
20260505095007 35 360 7.0 11.0 0.00 0.00 0.00 61 1002.9
20260505094507 35 360 8.0 11.0 0.00 0.00 0.00 61 1002.8
20260505093512 35 360 8.0 11.0 0.00 0.00 0.00 61 1002.9
20260505093006 35 360 8.0 11.0 0.00 0.00 0.00 60 1002.9
20260505092505 35 360 8.0 11.0 0.00 0.00 0.00 60 1002.8
20260505092005 35 360 7.0 10.0 0.00 0.00 0.00 60 1002.7
20260505091505 35 360 7.0 10.0 0.00 0.00 0.00 59 1002.7
20260505091004 35 360 8.0 10.0 0.00 0.00 0.00 59 1002.8
20260505090506 35 360 7.0 11.0 0.00 0.00 0.00 59 1002.8
20260505090005 35 360 8.0 11.0 0.00 0.00 0.00 59 1002.7
20260505085505 35 360 8.0 11.0 0.00 0.00 0.00 59 1002.6
20260505085007 35 360 8.0 12.0 0.00 0.00 0.00 59 1002.6
20260505084510 35 360 8.0 12.0 0.00 0.00 0.00 59 1002.7
20260505083503 35 360 8.0 10.0 0.00 0.00 0.00 59 1002.8
20260505083010 35 360 7.0 10.0 0.00 0.00 0.00 59 1002.7
20260505082503 35 360 7.0 10.0 0.00 0.00 0.00 59 1002.8
20260505082007 35 360 7.0 9.0 0.00 0.00 0.00 59 1002.7
20260505081502 35 360 7.0 11.0 0.00 0.00 0.00 59 1002.7
20260505081004 36 360 7.0 12.0 0.00 0.00 0.00 58 1002.6
20260505080501 36 360 8.0 12.0 0.00 0.00 0.00 58 1002.7
20260505080003 36 360 9.0 12.0 0.00 0.00 0.00 58 1002.7
20260505075501 36 360 9.0 13.0 0.00 0.00 0.00 58 1002.6
20260505075001 36 360 9.0 13.0 0.00 0.00 0.00 57 1002.5
20260505074501 36 360 9.0 13.0 0.00 0.00 0.00 57 1002.5
20260505073502 36 360 9.0 14.0 0.00 0.00 0.00 56 1002.5
20260505073002 36 360 11.0 14.0 0.00 0.00 0.00 56 1002.4
20260505072501 36 360 10.0 14.0 0.00 0.00 0.00 56 1002.5
20260505072001 36 360 9.0 12.0 0.00 0.00 0.00 56 1002.4
20260505071501 36 360 9.0 12.0 0.00 0.00 0.00 56 1002.4
20260505071100 36 360 9.0 12.0 0.00 0.00 0.00 55 1002.5
20260505070600 36 360 9.0 12.0 0.00 0.00 0.00 56 1002.5
20260505070100 36 360 9.0 15.0 0.00 0.00 0.00 56 1002.5
20260505065600 36 360 9.0 15.0 0.00 0.00 0.00 57 1002.5
20260505065104 36 360 8.0 12.0 0.00 0.00 0.00 58 1002.6
20260505064604 36 360 9.0 12.0 0.00 0.00 0.00 58 1002.5
20260505064159 36 360 7.0 11.0 0.00 0.00 0.00 59 1002.5
20260505063559 35 360 9.0 11.0 0.00 0.00 0.00 59 1002.7
20260505063059 35 360 8.0 11.0 0.00 0.00 0.00 59 1002.6
20260505062559 35 360 7.0 11.0 0.00 0.00 0.00 60 1002.5
20260505062058 34 360 7.0 9.0 0.00 0.00 0.00 61 1002.4
20260505061557 34 360 6.0 9.0 0.00 0.00 0.00 62 1002.4
20260505061058 33 360 6.0 8.0 0.00 0.00 0.00 61 1002.4
20260505060557 34 360 6.0 9.0 0.00 0.00 0.00 61 1002.3
20260505055558 33 360 5.0 8.0 0.00 0.00 0.00 62 1002.4
20260505055101 33 360 6.0 8.0 0.00 0.00 0.00 62 1002.3
20260505054603 33 360 5.0 7.0 0.00 0.00 0.00 62 1002.3
20260505053557 32 360 5.0 6.0 0.00 0.00 0.00 62 1002.2
20260505053110 32 360 4.0 6.0 0.00 0.00 0.00 62 1002.2
20260505052555 32 360 4.0 5.0 0.00 0.00 0.00 62 1002.2
20260505052054 32 360 3.0 6.0 0.00 0.00 0.00 61 1002.2
20260505051553 33 360 4.0 6.0 0.00 0.00 0.00 60 1002.2
20260505051052 33 360 4.0 6.0 0.00 0.00 0.00 59 1002.1
20260505050550 34 360 4.0 5.0 0.00 0.00 0.00 59 1002.0
20260505041605 36 360 5.0 10.0 0.00 0.00 0.00 54 1001.7
20260505041041 37 360 7.0 13.0 0.00 0.00 0.00 54 1001.6
20260505040540 37 360 8.0 13.0 0.00 0.00 0.00 53 1001.7
20260505040039 38 360 9.0 14.0 0.00 0.00 0.00 53 1001.5
20260505035537 38 360 10.0 15.0 0.00 0.00 0.00 52 1001.6
20260505035041 38 360 10.0 15.0 0.00 0.00 0.00 52 1001.4
20260505034537 38 360 9.0 15.0 0.00 0.00 0.00 51 1001.4
20260505033534 39 360 11.0 15.0 0.00 0.00 0.00 51 1001.3
20260505033035 39 360 11.0 18.0 0.00 0.00 0.00 51 1001.2
20260505032532 39 360 12.0 19.0 0.00 0.00 0.00 50 1001.1
20260505032033 39 360 12.0 19.0 0.00 0.00 0.00 50 1001.0
20260505031529 40 360 12.0 20.0 0.00 0.00 0.00 50 1001.0
20260505031029 40 360 14.0 20.0 0.00 0.00 0.00 50 1000.9
20260505030528 40 360 14.0 20.0 0.00 0.00 0.00 49 1000.7
20260505030027 40 360 14.0 20.0 0.00 0.00 0.00 49 1000.7
20260505025526 41 360 14.0 22.0 0.00 0.00 0.00 49 1000.7
20260505025024 41 360 15.0 22.0 0.00 0.00 0.00 49 1000.6
20260505024537 41 360 14.0 20.0 0.00 0.00 0.00 49 1000.5
20260505024123 41 360 13.0 22.0 0.00 0.00 0.00 48 1000.4
20260505023523 41 360 14.0 22.0 0.00 0.00 0.00 48 1000.4
20260505023022 41 360 16.0 22.0 0.00 0.00 0.00 48 1000.3
20260505022525 41 360 14.0 20.0 0.00 0.00 0.00 48 1000.1
20260505022021 42 360 14.0 21.0 0.00 0.00 0.00 48 1000.1
20260505021520 42 360 14.0 21.0 0.00 0.00 0.00 48 999.8
20260505021018 42 360 14.0 21.0 0.00 0.00 0.00 48 999.7
20260505020516 42 360 15.0 20.0 0.00 0.00 0.00 48 999.7
20260505020016 42 360 12.0 21.0 0.00 0.00 0.00 48 999.6
20260505015515 42 360 15.0 22.0 0.00 0.00 0.00 47 999.5
20260505015019 42 360 15.0 22.0 0.00 0.00 0.00 47 999.6
20260505014513 43 360 14.0 19.0 0.00 0.00 0.00 46 999.5
20260505013512 43 360 15.0 23.0 0.00 0.00 0.00 46 999.1
20260505013018 43 360 19.0 25.0 0.00 0.00 0.00 46 999.1
20260505012509 43 360 18.0 25.0 0.00 0.00 0.00 46 999.1
20260505012007 43 360 17.0 23.0 0.00 0.00 0.00 45 999.0
20260505011506 43 360 17.0 23.0 0.00 0.00 0.00 45 998.9
20260505011006 44 360 16.0 22.0 0.00 0.00 0.00 45 998.8
20260505010505 44 360 14.0 23.0 0.00 0.00 0.00 45 998.8
20260505010005 44 360 17.0 25.0 0.00 0.00 0.00 44 998.7
20260505005504 44 360 20.0 25.0 0.00 0.00 0.00 44 998.8
20260505005002 44 360 17.0 26.0 0.00 0.00 0.00 44 998.6
20260505004502 44 360 17.0 26.0 0.00 0.00 0.00 44 998.7
20260505004202 45 360 17.0 24.0 0.00 0.00 0.00 43 998.6
20260505003503 45 360 16.0 24.0 0.00 0.00 0.00 43 998.4
20260505003100 45 360 18.0 25.0 0.00 0.00 0.00 42 998.5
20260505002559 45 360 20.0 28.0 0.00 0.00 0.00 42 998.4
20260505002058 46 360 21.0 28.0 0.00 0.00 0.00 41 998.3
20260505001558 46 360 19.0 29.0 0.00 0.00 0.00 41 998.2
20260505001056 46 360 23.0 29.0 0.00 0.00 0.00 41 998.2
20260505000555 46 360 19.0 29.0 0.00 0.00 0.00 41 998.2
20260505000106 47 360 21.0 29.0 0.00 0.00 0.00 40 998.2
20260504235554 47 360 21.0 32.0 0.00 0.00 0.00 41 998.1
20260504235054 48 360 23.0 32.0 0.00 0.00 0.00 39 997.9
20260504234614 47 360 22.0 30.0 0.00 0.00 0.00 40 997.9
20260504234153 47 360 24.0 31.0 0.00 0.00 0.00 40 997.8
20260504233552 47 360 23.0 31.0 0.00 0.00 0.00 41 997.8
20260504233051 49 360 22.0 34.0 0.00 0.00 0.00 39 997.8
20260504232549 49 360 25.0 34.0 0.00 0.00 0.00 40 997.8
20260504232048 50 294 19.0 29.0 0.00 0.00 0.00 40 997.8
20260504231559 49 360 17.0 33.0 0.00 0.00 0.00 41 997.6
20260504231050 49 360 23.0 33.0 0.00 0.00 0.00 40 997.7
20260504230548 49 360 25.0 32.0 0.00 0.00 0.00 40 997.7
20260504230048 49 360 23.0 31.0 0.00 0.00 0.00 42 997.8
20260504225548 50 360 22.0 31.0 0.00 0.00 0.00 39 997.5
20260504225047 50 304 21.0 29.0 0.00 0.00 0.00 39 997.6
20260504224548 50 319 23.0 33.0 0.00 0.00 0.00 41 997.6
20260504224148 48 360 21.0 31.0 0.00 0.00 0.00 44 997.6
20260504223548 48 360 21.0 31.0 0.00 0.00 0.00 44 997.7
20260504223047 50 296 24.0 31.0 0.00 0.00 0.00 41 997.5
20260504222548 50 298 23.0 32.0 0.00 0.00 0.00 41 997.5
20260504222047 50 317 23.0 32.0 0.00 0.00 0.00 43 997.6
20260504221556 49 360 19.0 31.0 0.00 0.00 0.00 44 997.6
20260504221047 49 360 21.0 33.0 0.00 0.00 0.00 44 997.6
20260504220545 50 360 23.0 33.0 0.00 0.00 0.00 44 997.6
20260504220045 49 360 24.0 36.0 0.00 0.00 0.00 44 997.5
20260504215544 49 360 23.0 36.0 0.00 0.00 0.00 43 997.4
20260504215045 49 360 27.0 36.0 0.00 0.00 0.00 43 997.4
20260504214545 50 360 23.0 35.0 0.00 0.00 0.00 43 997.4
20260504214145 49 360 22.0 32.0 0.00 0.00 0.00 42 997.4
20260504213544 49 360 23.0 31.0 0.00 0.00 0.00 41 997.4
20260504213044 50 360 24.0 36.0 0.00 0.00 0.00 42 997.3
20260504212544 49 360 26.0 36.0 0.00 0.00 0.00 43 997.4
20260504212041 50 304 24.0 34.0 0.00 0.00 0.00 40 997.4
20260504211548 50 360 22.0 34.0 0.00 0.00 0.00 42 997.4
20260504211041 50 360 23.0 38.0 0.00 0.00 0.00 41 997.3
20260504210541 50 360 29.0 38.0 0.00 0.00 0.00 41 997.4
20260504210100 50 360 29.0 36.0 0.00 0.00 0.00 41 997.3
20260504205539 50 360 28.0 36.0 0.00 0.00 0.00 39 997.3
20260504205041 50 360 21.0 35.0 0.00 0.00 0.00 41 997.3
20260504204546 50 360 28.0 35.0 0.00 0.00 0.00 40 997.3
20260504204137 51 360 23.0 38.0 0.00 0.00 0.00 41 997.4
20260504203536 51 360 25.0 38.0 0.00 0.00 0.00 41 997.3
20260504203040 51 360 26.0 36.0 0.00 0.00 0.00 41 997.3
20260504202534 51 360 24.0 36.0 0.00 0.00 0.00 40 997.2
20260504202035 50 360 23.0 33.0 0.00 0.00 0.00 43 997.3
20260504201534 50 360 27.0 36.0 0.00 0.00 0.00 41 997.3
20260504201034 50 360 28.0 36.0 0.00 0.00 0.00 42 997.4
20260504200534 50 360 26.0 34.0 0.00 0.00 0.00 42 997.3
20260504200033 48 360 21.0 35.0 0.00 0.00 0.00 44 997.5
20260504195534 48 360 24.0 32.0 0.00 0.00 0.00 44 997.5
20260504195033 49 360 24.0 32.0 0.00 0.00 0.00 45 997.5
20260504194553 48 360 22.0 38.0 0.00 0.00 0.00 45 997.5